Vorticity
5 6 6 6 7 8 9 9 9 8 8 8 7 7 7 6 6 5 6 7 9 9 8 7 5 5 6 7 8 8 8 9 6 5 10 16 14 4 -0 1 1 2 4 8 9 5 4 3 3 3 3 4 3 3 2 3 4 4 4 2 6 4 4 7 6 9 11 7 4 8 7 6 8 1 3 8 5 6 5 8 8 6 9 10 6 6 10 7
5 5 6 6 6 7 9 9 10 10 9 9 8 8 7 7 7 6 6 5 6 8 9 9 7 5 5 5 6 7 8 9 9 7 6 10 15 12 4 2 2 1 3 6 7 6 4 3 3 3 3 3 3 3 2 3 4 3 1 4 10 7 4 7 7 7 9 8 5 9 10 6 6 3 5 8 5 6 5 7 9 7 8 9 8 6 9 8
5 5 6 6 6 6 7 8 9 9 9 9 9 9 8 7 7 7 6 6 6 6 7 9 9 8 6 5 5 6 7 8 9 10 8 6 10 13 9 5 2 2 3 2 4 7 6 4 3 3 3 3 3 3 2 2 4 4 -1 1 8 7 4 5 7 5 7 9 6 9 11 5 5 8 7 5 6 6 4 6 6 7 7 9 11 6 7 7
6 6 6 6 6 6 6 7 7 8 8 9 9 9 9 8 7 7 7 7 6 6 6 7 8 10 8 7 6 6 6 6 7 9 10 8 7 10 11 10 6 3 4 2 3 5 7 7 4 4 3 3 2 3 3 2 4 4 2 6 7 4 6 6 7 6 5 8 7 9 12 4 3 9 7 3 6 5 4 6 3 5 6 10 15 7 5 7
6 7 7 7 7 7 7 7 6 6 7 7 8 8 9 9 8 8 7 7 7 7 6 6 6 8 10 9 7 6 5 5 8 7 8 10 8 7 9 11 9 6 5 4 4 5 6 6 6 5 4 3 3 2 3 3 5 -1 -0 12 9 2 6 7 6 6 3 6 8 9 11 5 2 10 11 4 3 5 7 7 4 5 4 7 15 11 4 6
8 8 7 8 8 8 8 7 7 7 6 6 7 7 8 8 9 8 8 7 7 8 7 6 6 5 7 10 9 8 6 6 9 8 7 10 9 8 8 9 9 7 7 5 4 5 5 5 6 6 5 5 3 4 3 4 6 2 1 9 8 3 6 6 6 5 0 3 6 7 9 6 5 11 13 4 -3 5 9 6 6 7 5 4 14 16 6 5
8 9 8 8 8 8 8 8 8 7 7 7 6 7 7 7 8 8 8 8 8 8 8 7 7 6 5 7 10 9 7 5 6 8 7 7 9 10 9 8 8 8 8 7 6 6 5 5 5 5 5 5 4 4 4 5 4 3 5 6 4 5 5 6 6 2 -0 2 5 7 6 7 9 7 13 9 0 7 9 5 7 8 7 1 9 18 9 4
9 9 9 9 9 10 9 9 9 8 8 7 7 7 7 7 7 7 8 8 8 8 8 8 7 7 5 5 8 9 10 8 6 7 7 6 7 9 10 10 8 7 8 8 7 6 5 4 4 5 4 4 5 3 4 5 3 4 6 4 4 7 4 5 6 3 2 2 5 7 4 7 10 3 7 8 3 9 10 7 7 8 9 2 6 17 10 4
8 8 9 10 11 11 11 11 10 10 9 8 7 7 7 7 6 7 8 7 8 9 9 9 8 8 6 5 5 7 9 10 9 8 8 6 5 7 9 10 10 8 7 8 9 7 5 5 4 4 2 3 5 5 4 2 3 6 5 3 5 6 5 4 4 5 4 2 6 7 2 5 8 5 5 4 4 8 8 9 9 7 10 4 5 14 10 4
8 8 9 11 12 13 13 13 12 11 10 9 9 8 8 7 6 7 8 8 8 9 9 10 9 8 7 6 5 6 8 8 9 10 10 8 6 6 7 9 10 9 7 6 9 10 7 5 4 3 2 4 6 6 5 1 5 8 4 5 6 4 5 4 4 5 4 4 5 3 1 3 6 4 3 4 7 8 7 9 9 7 10 5 4 11 12 6
10 10 11 12 13 14 14 14 14 13 12 11 10 10 9 8 7 7 8 8 8 9 10 10 10 9 8 7 5 6 7 7 9 11 11 10 7 6 7 7 9 10 9 6 7 9 9 6 4 5 4 6 6 5 6 1 3 10 6 4 6 3 4 5 5 4 1 3 3 3 6 5 5 4 4 7 7 7 7 8 9 8 8 6 5 8 11 8
13 13 13 13 13 14 14 15 15 14 13 13 12 11 10 9 8 7 7 7 8 9 10 11 11 10 9 7 6 7 7 6 8 9 11 12 9 7 6 6 7 9 10 8 6 7 10 9 6 6 5 5 4 4 7 3 1 9 7 4 7 3 4 5 5 5 1 2 4 4 7 3 2 8 8 8 9 9 7 7 9 8 6 7 6 5 10 11
16 15 14 13 12 12 13 15 15 14 14 13 13 12 11 10 9 8 7 7 8 9 10 11 11 11 9 7 8 8 6 5 6 8 10 11 11 9 7 5 6 7 10 10 7 6 9 12 8 5 5 3 4 4 6 5 2 8 7 4 6 4 4 3 4 6 0 2 7 3 4 2 6 17 10 3 7 8 6 7 8 8 7 7 7 5 9 12
14 13 13 12 12 13 13 14 14 14 14 14 13 13 12 12 10 8 8 7 7 8 11 12 11 11 10 9 10 8 7 7 6 8 9 9 10 11 10 7 6 6 8 10 10 8 7 12 10 8 6 3 5 5 6 6 3 7 9 4 5 4 5 4 4 5 1 5 8 1 3 5 12 20 8 1 9 8 5 7 8 8 7 7 8 6 9 12
12 12 12 12 13 13 14 14 14 13 14 15 14 13 12 11 11 9 8 7 6 7 8 12 13 13 11 10 9 7 8 7 6 7 8 9 9 10 11 10 8 6 6 9 11 10 7 8 10 10 9 5 4 2 3 8 4 5 8 4 3 2 4 7 5 3 1 4 5 1 4 7 11 11 3 2 9 8 5 6 7 8 8 8 9 7 8 12
13 13 12 13 13 13 14 13 14 13 13 14 14 14 13 11 11 9 8 7 6 6 7 10 13 13 11 10 11 9 8 7 6 7 8 10 9 8 11 11 11 8 6 8 10 11 8 6 8 10 8 6 5 -1 0 7 5 5 5 3 4 2 3 6 5 2 -1 4 10 4 -3 4 13 6 0 5 8 4 3 6 6 6 9 8 9 8 6 11
13 13 13 12 12 12 12 12 12 12 13 13 14 14 13 13 12 10 10 8 6 6 7 7 10 14 12 11 15 12 8 7 6 6 7 9 10 9 8 10 12 11 8 7 8 11 10 7 6 8 7 7 6 1 0 4 4 5 1 2 5 2 3 4 6 5 -3 2 10 2 -5 8 26 19 6 12 16 6 0 6 7 5 10 9 7 8 6 8
13 12 11 11 11 11 11 11 12 11 12 12 13 14 14 14 13 12 11 11 9 8 8 7 8 12 12 10 12 12 11 9 6 6 6 7 10 10 8 7 10 12 12 8 8 10 11 9 6 6 7 7 7 4 2 1 3 4 1 2 5 3 2 2 8 7 0 2 1 1 0 -1 14 20 8 8 14 4 -2 6 10 6 8 9 9 7 6 7
11 10 10 10 10 10 9 10 10 10 11 12 13 14 14 14 13 13 13 14 14 10 9 9 8 8 8 10 12 12 13 10 7 6 6 7 8 9 8 8 7 10 13 11 9 8 10 12 7 6 7 6 6 4 4 2 0 3 4 2 0 5 7 5 11 8 5 6 -2 4 4 -12 -1 14 7 2 4 1 2 7 8 8 8 7 10 8 7 8
11 10 10 9 9 9 9 10 10 11 11 11 13 13 13 13 11 11 13 15 15 14 12 10 10 7 7 11 13 14 14 10 8 7 6 7 7 8 9 8 7 7 10 12 12 9 9 11 10 7 6 6 6 4 3 3 2 0 7 8 -3 2 8 10 21 15 6 7 1 5 2 -5 6 11 10 10 6 3 4 9 7 4 8 8 8 10 9 8
10 9 9 8 9 10 11 12 12 12 12 12 13 13 13 13 11 12 12 13 15 17 16 12 10 7 6 10 12 14 14 12 10 7 7 8 7 8 7 7 8 6 7 10 12 11 9 9 11 11 6 5 6 6 1 2 6 -2 1 12 4 0 -4 -0 24 19 4 5 1 1 -4 -3 6 4 8 8 3 7 2 4 7 2 9 8 4 10 10 9
8 8 9 9 11 12 13 13 13 13 13 13 12 13 14 12 11 12 10 11 14 15 17 17 14 10 8 10 11 11 11 12 12 9 8 9 9 8 7 7 8 6 7 8 10 12 12 8 10 12 10 8 5 5 3 4 10 -1 -4 8 8 9 -2 -3 24 19 7 8 2 7 0 -6 3 1 5 7 4 11 5 3 6 3 8 5 2 11 10 10
7 8 9 10 12 13 13 13 14 14 14 14 13 12 12 12 12 12 9 9 12 14 16 18 17 14 11 9 8 8 9 11 12 10 9 9 9 8 7 7 6 6 7 7 8 10 14 12 10 10 10 10 6 5 6 5 6 0 -0 1 0 7 -6 -3 27 17 6 8 -1 18 18 -0 10 6 -3 9 11 6 3 7 6 2 5 4 6 10 8 10
8 9 10 12 13 13 14 15 15 15 15 15 15 14 13 13 12 11 11 10 11 12 14 17 19 18 14 11 10 10 11 10 11 11 8 9 11 8 8 8 5 6 6 7 8 7 12 14 12 11 10 11 9 7 7 4 2 3 2 -3 1 10 -13 -15 22 19 7 2 -14 7 19 5 21 20 -4 2 12 6 4 7 4 5 6 6 13 11 5 12
8 10 12 12 13 14 14 16 18 18 18 17 17 18 17 16 13 14 14 13 14 14 13 16 18 18 17 15 15 12 9 9 10 11 8 7 11 10 9 8 6 6 6 7 8 5 7 11 12 10 8 10 11 10 9 6 4 3 4 -4 -4 17 6 -10 10 16 9 6 -7 -5 0 -2 12 19 7 2 4 8 10 7 4 6 4 6 18 18 5 8
9 10 12 12 13 15 16 20 21 20 22 20 19 19 20 20 21 22 17 15 23 20 14 16 16 18 19 16 14 10 10 13 11 9 9 9 9 8 9 8 7 8 7 6 7 6 5 8 10 10 8 8 10 13 10 10 8 3 13 8 -17 -7 11 10 17 15 3 7 15 7 -5 -2 6 7 8 6 3 6 7 8 7 3 3 6 7 7 6 5
10 11 12 11 14 20 23 24 22 22 22 21 21 18 18 20 21 23 20 22 30 21 15 19 16 18 18 13 13 10 15 22 15 9 9 11 12 10 10 9 7 8 8 6 6 6 5 9 9 8 12 10 7 12 10 13 9 1 20 28 1 -15 -15 -5 18 24 9 2 20 22 -4 -9 3 5 5 3 5 4 -1 5 10 6 5 7 2 3 11 7
10 10 11 14 19 22 23 23 21 22 21 19 19 17 17 19 17 20 17 14 18 14 17 22 17 19 21 19 16 9 9 12 13 16 11 9 13 11 12 13 9 9 9 5 7 8 4 7 10 9 11 11 9 9 11 16 3 -9 10 19 11 4 -13 -19 -6 9 7 -8 10 33 12 -5 1 6 7 3 3 5 3 3 4 6 7 6 7 7 8 8
10 11 13 17 21 20 20 21 21 22 21 19 18 17 20 19 16 19 15 6 7 11 17 21 17 16 20 23 18 9 11 6 6 17 13 9 14 9 8 12 9 11 10 3 8 20 17 6 5 11 10 8 12 8 6 16 6 -2 14 14 7 10 6 -2 -9 -4 -3 -21 1 35 22 5 0 1 13 14 9 9 8 7 -1 -0 7 7 6 3 5 11
11 12 16 19 19 19 19 20 20 19 21 20 19 19 18 16 14 15 14 12 15 15 14 19 22 16 13 20 17 12 17 14 9 12 6 5 13 12 11 12 9 12 13 -1 -6 10 26 16 2 7 10 7 10 11 8 9 4 5 15 13 12 12 9 10 4 3 -2 -20 -4 21 19 12 -4 -9 13 20 17 13 3 3 4 2 5 7 4 2 9 12
13 14 16 17 18 21 20 19 20 18 19 19 19 20 14 14 14 7 7 10 13 18 14 14 21 19 16 16 17 16 14 16 18 17 15 12 8 9 12 12 12 13 10 2 -3 -0 11 14 5 1 8 10 3 6 20 16 -0 4 9 5 13 18 12 13 12 9 3 -8 -8 -5 8 23 6 -14 -8 1 12 15 5 2 4 6 5 6 7 5 11 15
15 16 16 14 17 23 20 19 19 15 19 19 18 18 12 14 12 4 14 18 14 21 19 13 16 20 22 16 16 17 11 15 15 8 18 21 13 17 14 8 16 19 10 8 13 12 3 5 13 7 3 11 1 -9 12 19 1 1 8 4 10 19 15 11 13 14 6 2 -1 -12 -7 13 17 4 -13 -8 10 11 7 7 3 5 5 4 9 6 6 12
16 16 13 12 16 22 21 18 15 13 18 17 17 17 10 12 10 3 12 13 10 16 14 17 22 21 23 20 23 25 13 19 21 12 18 13 11 26 17 4 12 14 17 23 19 14 11 7 10 9 3 8 7 -5 4 16 10 9 10 4 6 14 19 13 9 17 11 3 6 4 -1 -5 5 19 4 -4 15 17 9 7 3 4 4 5 8 5 4 6
17 15 12 11 12 18 22 19 14 13 17 16 18 17 8 9 12 7 9 6 9 16 12 18 22 15 14 10 20 29 15 14 16 16 23 6 3 24 18 9 10 -1 5 28 28 15 18 23 14 9 8 6 7 3 3 9 11 11 10 6 5 9 22 23 12 20 24 13 9 11 11 2 -1 15 11 -9 3 22 17 6 3 4 3 5 6 6 7 3
18 14 10 10 9 12 19 21 18 14 16 18 16 13 9 9 7 7 15 15 12 13 13 18 16 15 17 6 10 19 12 16 13 7 17 14 15 30 29 25 22 5 -10 1 26 21 10 28 27 12 11 5 5 9 4 6 9 11 11 4 -2 1 14 22 16 22 32 25 19 12 4 7 10 14 12 -6 -10 9 15 7 4 3 3 5 4 6 7 4
17 14 10 8 8 10 14 21 23 16 16 18 14 10 9 12 9 7 17 19 11 9 15 21 15 11 10 1 6 7 1 19 24 6 6 9 8 14 18 21 17 10 -8 -20 12 27 16 36 31 5 14 11 1 13 9 -1 2 14 23 7 -9 -2 6 11 14 18 25 21 18 16 -2 -9 2 10 12 5 -5 -1 7 9 6 2 4 5 4 5 5 5
15 14 10 6 6 9 10 17 22 21 21 19 13 10 9 14 15 9 13 14 11 12 14 15 12 10 10 5 12 15 6 16 20 6 4 2 0 8 15 19 11 11 8 -13 -6 6 11 49 42 -1 14 21 -1 8 11 -2 -7 4 24 13 -4 8 6 -0 12 16 13 11 7 13 11 -3 -7 -2 3 5 4 3 2 5 8 5 4 5 3 5 4 3
14 13 11 7 4 6 9 14 17 21 23 16 11 12 10 15 14 9 13 12 12 13 5 4 4 6 19 16 12 20 21 23 17 9 15 10 6 19 19 15 11 11 15 3 -2 -6 -11 35 58 15 6 18 6 4 7 6 -4 -13 3 3 -8 13 17 -4 4 15 11 11 8 10 18 21 17 11 10 6 6 8 5 4 8 5 3 6 3 2 4 3
13 11 10 8 5 4 7 13 17 19 17 13 16 16 11 14 14 10 12 11 13 5 -6 10 17 4 15 16 9 18 16 17 17 6 14 17 11 21 20 15 16 12 12 2 -7 -6 -18 3 51 41 9 8 13 7 6 19 17 -4 -3 0 -15 -2 23 11 -7 1 13 10 4 5 11 21 22 16 16 14 10 11 7 4 9 7 3 4 4 1 3 4
12 11 7 7 7 6 5 7 15 18 14 12 18 18 12 14 14 11 10 8 12 3 -6 17 24 5 11 15 14 20 3 2 19 7 8 22 15 18 24 22 21 17 20 14 -10 -11 -12 -14 27 49 14 -3 16 15 2 13 26 16 5 9 1 -14 -2 14 -2 -7 14 12 1 5 10 17 18 10 9 11 13 17 13 5 5 9 6 2 4 3 2 4
10 12 9 7 7 9 7 4 8 15 17 15 14 16 16 16 13 10 10 8 8 8 4 10 12 6 9 11 15 21 1 -4 16 10 8 20 12 11 20 19 23 21 19 25 14 4 -1 -16 11 50 27 3 22 17 -5 -4 8 15 3 -2 22 19 -4 1 4 -2 5 5 8 15 10 11 15 13 14 8 4 12 16 10 4 5 8 3 2 2 1 4
8 11 12 12 8 8 12 8 5 9 17 20 17 15 13 14 16 12 10 9 5 8 8 2 7 11 5 4 12 16 6 -0 9 9 8 14 9 11 17 11 19 24 10 13 23 20 13 -11 -13 21 26 18 26 14 3 10 7 13 8 -20 -4 31 27 11 8 10 6 -5 5 16 7 5 6 4 14 16 9 10 12 12 7 3 6 5 3 4 1 3
7 7 10 16 12 9 11 10 6 4 9 18 22 19 11 7 13 15 11 12 7 6 8 2 5 12 5 5 10 8 7 5 7 11 11 11 10 10 14 9 9 17 9 9 19 20 22 7 -19 -7 16 19 19 8 4 14 6 6 19 -1 -23 -10 12 13 1 8 17 5 7 14 6 9 12 5 7 13 16 19 15 15 13 5 5 5 4 6 2 1
6 7 7 12 15 13 11 7 7 6 5 10 17 23 24 13 8 9 8 14 13 7 8 6 5 9 5 5 9 8 9 6 5 12 11 12 14 7 9 12 7 10 9 9 19 16 15 12 -11 -7 20 22 18 18 12 12 10 2 9 16 -1 -22 -15 1 -6 -6 2 -5 1 17 11 6 13 16 16 12 12 15 13 16 20 13 7 6 5 7 5 1
6 8 6 7 11 14 14 10 8 8 6 7 8 13 25 26 19 15 7 7 13 10 9 8 4 6 4 1 6 9 7 5 6 10 9 10 13 7 7 11 8 12 12 8 15 17 16 18 -1 -11 12 23 19 25 21 13 14 12 6 8 11 3 2 8 5 2 -1 -13 -8 10 8 -0 3 10 14 14 14 14 10 9 18 21 15 9 6 7 6 2
6 8 6 7 9 9 13 14 10 9 7 7 8 6 12 21 25 26 19 12 10 8 10 11 6 6 6 2 4 5 3 4 5 7 9 9 10 9 8 10 8 10 12 8 9 10 10 18 11 -7 -3 7 6 10 13 8 9 15 13 6 5 8 9 8 7 6 3 1 3 7 3 -2 -2 -4 -2 6 15 20 17 7 8 18 20 15 11 7 6 5
7 8 7 8 9 6 9 13 12 12 8 3 6 4 4 10 13 18 26 28 21 11 8 11 9 8 7 5 6 6 4 4 3 4 7 7 9 10 8 9 9 8 10 10 11 11 6 10 14 6 2 5 7 10 9 6 10 14 9 4 6 8 7 8 10 5 -0 1 5 5 4 7 10 5 -3 -4 2 13 19 12 7 12 16 17 17 11 6 5
7 9 8 7 9 7 7 10 11 12 11 6 6 6 5 8 8 7 15 25 30 25 16 13 11 10 9 9 8 7 6 6 5 5 6 6 7 8 8 9 8 8 9 9 11 12 7 8 12 8 4 5 8 14 14 9 12 17 12 8 9 9 8 8 7 5 4 3 4 5 5 9 16 17 9 0 -3 4 14 13 7 9 12 14 17 16 9 5
7 9 9 8 9 9 7 8 9 10 11 11 11 12 11 13 13 8 7 12 19 23 25 25 20 12 11 12 9 9 10 8 7 7 7 8 7 6 8 10 8 7 8 8 10 12 9 11 14 10 8 7 4 8 16 14 11 13 16 16 13 10 11 10 5 6 6 3 4 7 2 1 7 10 12 13 7 3 9 12 8 6 9 11 14 16 13 8
8 9 10 9 9 10 9 9 9 9 9 9 7 9 10 13 17 14 8 7 9 11 18 29 30 23 18 13 9 11 14 11 10 11 10 9 9 6 6 8 10 11 9 6 7 9 8 10 12 11 11 12 10 9 13 15 12 13 16 16 14 13 14 14 11 10 7 4 10 14 6 4 9 7 6 11 14 10 7 10 11 5 5 8 10 13 15 12
9 10 11 10 10 10 9 9 10 9 9 9 8 7 7 10 15 17 13 10 10 9 10 15 22 26 26 22 17 16 15 11 10 12 12 11 10 8 7 6 8 10 10 10 8 6 8 11 10 10 10 11 11 10 11 13 13 14 17 17 16 15 14 17 17 13 7 2 8 15 13 9 11 10 5 3 9 15 11 9 14 10 5 6 7 9 13 12
10 12 11 10 10 9 9 9 11 10 9 10 10 9 9 8 9 16 19 13 8 9 10 9 11 14 18 23 27 28 26 22 18 16 15 14 12 12 13 11 8 7 7 9 8 6 7 7 6 7 10 12 13 11 10 10 8 10 14 15 15 15 14 15 15 14 10 2 -0 7 12 13 10 8 11 9 5 6 5 2 6 9 7 7 7 7 10 11
Height
5862 5861 5860 5860 5859 5859 5858 5858 5857 5857 5856 5856 5856 5857 5857 5857 5858 5859 5860 5860 5861 5861 5862 5862 5863 5864 5865 5866 5867 5868 5869 5870 5871 5873 5874 5876 5878 5880 5881 5882 5884 5885 5886 5888 5889 5890 5891 5892 5893 5894 5895 5896 5897 5897 5897 5897 5898 5899 5899 5900 5899 5900 5900 5899 5900 5900 5901 5901 5901 5901 5903 5903 5902 5903 5903 5903 5904 5904 5904 5904 5904 5904 5905 5905 5906 5906 5907 5908
5859 5859 5858 5857 5856 5856 5856 5855 5855 5854 5854 5854 5854 5854 5854 5855 5855 5856 5857 5858 5859 5859 5860 5860 5861 5862 5863 5864 5865 5866 5867 5868 5869 5871 5872 5874 5876 5878 5879 5880 5882 5884 5885 5886 5887 5889 5890 5891 5892 5893 5894 5895 5896 5897 5896 5897 5898 5899 5899 5900 5898 5900 5901 5901 5900 5900 5902 5902 5901 5902 5904 5904 5903 5904 5904 5904 5905 5905 5905 5904 5905 5905 5905 5906 5906 5906 5907 5908
5856 5856 5855 5854 5853 5853 5852 5852 5852 5852 5851 5851 5851 5851 5851 5852 5852 5853 5854 5855 5856 5857 5857 5858 5858 5859 5860 5861 5862 5864 5865 5866 5867 5869 5870 5872 5874 5875 5877 5879 5881 5882 5883 5885 5886 5888 5889 5891 5892 5893 5894 5895 5896 5896 5896 5896 5898 5898 5899 5900 5899 5899 5901 5901 5901 5900 5901 5902 5902 5903 5904 5904 5904 5904 5905 5906 5906 5906 5906 5905 5905 5906 5906 5906 5907 5907 5908 5909
5854 5853 5852 5851 5850 5849 5849 5848 5848 5848 5848 5848 5848 5848 5848 5849 5849 5850 5851 5852 5853 5854 5855 5855 5856 5857 5858 5859 5860 5861 5863 5863 5865 5867 5868 5870 5871 5873 5875 5877 5879 5880 5882 5884 5886 5887 5889 5890 5891 5892 5893 5894 5895 5896 5896 5896 5897 5897 5899 5900 5900 5900 5900 5901 5901 5900 5901 5901 5902 5903 5903 5903 5904 5904 5906 5907 5907 5906 5906 5906 5906 5906 5906 5907 5908 5908 5908 5909
5851 5850 5849 5848 5847 5846 5846 5845 5844 5844 5844 5844 5844 5845 5845 5846 5846 5847 5847 5848 5849 5851 5852 5853 5853 5854 5855 5856 5857 5858 5859 5861 5863 5865 5866 5867 5869 5871 5873 5875 5877 5878 5880 5882 5884 5886 5887 5889 5890 5891 5893 5894 5895 5895 5896 5896 5896 5897 5899 5900 5899 5900 5901 5901 5901 5901 5901 5901 5902 5903 5903 5903 5904 5904 5906 5907 5907 5907 5907 5907 5907 5907 5907 5907 5908 5909 5909 5910
5847 5846 5846 5845 5844 5843 5842 5842 5841 5841 5840 5840 5840 5841 5842 5842 5843 5843 5844 5845 5846 5847 5849 5850 5851 5852 5853 5853 5854 5855 5856 5859 5861 5862 5864 5865 5867 5869 5871 5873 5875 5876 5878 5880 5882 5884 5886 5887 5889 5890 5892 5893 5894 5894 5896 5896 5896 5897 5899 5899 5899 5900 5900 5901 5901 5901 5901 5901 5902 5903 5904 5904 5904 5905 5907 5906 5906 5907 5907 5908 5908 5908 5908 5908 5909 5909 5910 5910
5844 5843 5842 5841 5840 5840 5839 5838 5838 5837 5837 5837 5837 5837 5838 5838 5839 5840 5840 5841 5842 5844 5845 5847 5848 5849 5850 5851 5852 5853 5854 5856 5858 5860 5862 5863 5865 5867 5869 5871 5873 5874 5876 5878 5881 5882 5884 5886 5887 5888 5890 5891 5892 5893 5895 5895 5896 5897 5898 5899 5899 5900 5900 5900 5901 5901 5901 5902 5902 5903 5903 5904 5903 5904 5906 5906 5907 5908 5908 5908 5908 5908 5909 5909 5909 5910 5911 5911
5840 5839 5838 5837 5837 5836 5835 5835 5834 5834 5834 5833 5833 5833 5834 5834 5835 5836 5836 5837 5839 5840 5841 5843 5845 5846 5847 5848 5849 5850 5851 5854 5855 5857 5859 5861 5862 5865 5866 5868 5870 5872 5874 5876 5878 5880 5882 5883 5885 5887 5888 5890 5891 5892 5894 5894 5895 5896 5897 5898 5899 5899 5900 5900 5900 5901 5901 5902 5902 5902 5902 5902 5902 5904 5905 5906 5907 5908 5908 5908 5908 5909 5910 5910 5910 5911 5911 5912
5836 5835 5834 5833 5833 5832 5832 5831 5831 5830 5830 5830 5830 5830 5830 5831 5831 5832 5832 5833 5835 5836 5838 5839 5841 5843 5844 5845 5846 5846 5849 5851 5852 5854 5856 5858 5860 5862 5864 5866 5868 5870 5871 5873 5875 5877 5879 5881 5883 5884 5885 5887 5889 5891 5893 5893 5894 5895 5897 5898 5899 5899 5899 5900 5900 5900 5901 5902 5902 5901 5902 5902 5903 5903 5904 5905 5907 5907 5908 5909 5909 5909 5910 5910 5910 5911 5912 5913
5832 5831 5830 5829 5829 5829 5828 5828 5827 5827 5826 5826 5826 5826 5826 5827 5828 5828 5828 5829 5831 5832 5834 5835 5837 5839 5840 5842 5842 5843 5846 5848 5849 5851 5853 5855 5858 5859 5861 5863 5865 5867 5869 5871 5873 5875 5877 5879 5880 5882 5884 5887 5889 5890 5891 5892 5894 5895 5896 5897 5898 5898 5899 5899 5900 5900 5901 5901 5901 5901 5902 5903 5903 5904 5904 5905 5906 5907 5908 5909 5909 5910 5910 5911 5911 5912 5912 5913
5828 5827 5826 5825 5825 5824 5824 5824 5823 5823 5822 5822 5822 5822 5823 5823 5824 5824 5825 5826 5827 5828 5830 5832 5833 5835 5837 5838 5838 5841 5844 5845 5847 5849 5850 5853 5855 5857 5859 5861 5863 5865 5867 5869 5871 5873 5875 5876 5879 5882 5884 5886 5888 5889 5890 5892 5893 5894 5895 5896 5897 5898 5898 5899 5899 5900 5900 5901 5901 5901 5902 5903 5904 5904 5904 5906 5907 5907 5908 5909 5910 5910 5911 5911 5911 5912 5913 5913
5824 5823 5822 5821 5820 5820 5820 5819 5819 5819 5818 5818 5818 5819 5819 5819 5820 5821 5821 5822 5823 5824 5826 5828 5829 5831 5833 5834 5835 5839 5841 5842 5845 5846 5848 5850 5851 5854 5856 5858 5860 5862 5864 5866 5868 5870 5872 5875 5878 5881 5882 5884 5887 5888 5889 5891 5892 5893 5894 5895 5897 5898 5898 5899 5899 5900 5900 5901 5902 5902 5902 5903 5903 5904 5905 5906 5907 5908 5908 5909 5910 5910 5911 5911 5912 5912 5913 5914
5820 5819 5818 5817 5816 5816 5815 5815 5815 5814 5814 5814 5815 5815 5816 5816 5816 5817 5818 5819 5820 5820 5822 5823 5825 5827 5828 5829 5832 5835 5836 5839 5842 5843 5845 5847 5849 5851 5853 5855 5857 5859 5862 5864 5866 5868 5871 5874 5877 5878 5881 5884 5885 5886 5889 5891 5892 5893 5894 5895 5896 5897 5898 5898 5899 5899 5900 5902 5902 5902 5902 5902 5903 5904 5905 5906 5907 5908 5909 5909 5910 5910 5911 5911 5912 5912 5913 5914
5817 5815 5814 5814 5813 5812 5811 5811 5810 5810 5810 5811 5811 5812 5812 5812 5813 5813 5814 5815 5816 5817 5818 5819 5821 5823 5824 5826 5830 5831 5833 5836 5839 5840 5842 5844 5846 5848 5850 5852 5855 5857 5859 5862 5865 5867 5870 5873 5875 5877 5881 5882 5882 5886 5890 5890 5891 5892 5893 5894 5896 5897 5897 5898 5899 5899 5900 5901 5901 5901 5901 5902 5903 5904 5905 5907 5907 5907 5908 5909 5910 5910 5910 5911 5912 5912 5913 5914
5813 5812 5811 5810 5809 5808 5808 5807 5806 5806 5806 5807 5807 5808 5808 5809 5809 5810 5810 5811 5812 5814 5815 5816 5817 5819 5821 5823 5825 5827 5830 5833 5835 5837 5839 5842 5844 5845 5848 5850 5852 5855 5857 5860 5863 5866 5869 5871 5873 5876 5880 5880 5883 5888 5889 5889 5891 5892 5893 5894 5895 5897 5897 5898 5899 5898 5899 5900 5900 5901 5901 5902 5904 5906 5906 5907 5907 5907 5908 5909 5909 5910 5910 5911 5912 5913 5913 5914
5810 5809 5807 5806 5806 5805 5804 5803 5803 5802 5802 5803 5803 5803 5804 5804 5805 5806 5806 5807 5809 5810 5811 5813 5814 5815 5816 5819 5822 5824 5827 5829 5832 5835 5836 5839 5841 5843 5845 5847 5850 5852 5854 5857 5860 5863 5866 5868 5871 5874 5876 5878 5883 5886 5887 5888 5890 5891 5892 5893 5894 5896 5897 5898 5898 5897 5898 5900 5900 5901 5902 5903 5904 5905 5906 5906 5907 5907 5907 5908 5909 5909 5910 5911 5912 5913 5913 5914
5808 5806 5804 5803 5802 5802 5801 5800 5799 5799 5799 5799 5799 5799 5799 5800 5800 5801 5802 5803 5804 5806 5808 5809 5811 5812 5813 5816 5819 5821 5823 5826 5829 5831 5833 5836 5838 5841 5843 5845 5847 5850 5852 5855 5858 5860 5862 5865 5868 5871 5874 5877 5881 5883 5883 5885 5887 5889 5891 5892 5893 5895 5896 5897 5898 5897 5897 5899 5900 5901 5903 5903 5903 5904 5905 5906 5906 5905 5905 5907 5908 5909 5910 5910 5911 5912 5913 5914
5805 5803 5802 5800 5799 5798 5797 5797 5796 5795 5795 5795 5795 5795 5795 5795 5796 5797 5797 5799 5800 5802 5803 5805 5807 5808 5809 5812 5814 5815 5819 5822 5825 5828 5830 5833 5836 5838 5840 5842 5845 5847 5850 5852 5855 5857 5860 5862 5865 5868 5871 5874 5878 5880 5881 5884 5887 5889 5890 5891 5893 5894 5894 5896 5897 5896 5897 5898 5900 5902 5902 5902 5904 5905 5906 5907 5906 5904 5904 5906 5907 5908 5909 5909 5911 5912 5912 5913
5802 5800 5799 5798 5796 5795 5794 5793 5792 5791 5791 5791 5791 5791 5791 5791 5792 5792 5793 5794 5796 5797 5798 5800 5803 5804 5805 5807 5809 5812 5817 5819 5821 5824 5827 5829 5832 5835 5837 5840 5842 5844 5847 5849 5852 5854 5857 5860 5862 5865 5867 5871 5875 5878 5881 5885 5886 5887 5889 5890 5891 5892 5894 5895 5895 5896 5897 5898 5898 5901 5902 5902 5904 5906 5906 5905 5904 5904 5904 5906 5907 5908 5909 5909 5910 5911 5912 5913
5799 5798 5796 5795 5793 5792 5791 5789 5788 5787 5787 5786 5786 5787 5787 5787 5787 5788 5788 5789 5791 5792 5794 5797 5798 5799 5801 5804 5807 5811 5814 5815 5816 5820 5823 5826 5829 5831 5834 5837 5839 5841 5844 5846 5848 5851 5854 5857 5859 5863 5866 5870 5873 5876 5880 5882 5881 5882 5885 5887 5889 5891 5893 5894 5893 5895 5897 5897 5898 5899 5900 5902 5903 5905 5904 5902 5902 5903 5904 5906 5907 5908 5909 5909 5910 5910 5911 5912
5796 5795 5793 5791 5790 5789 5787 5786 5784 5783 5782 5782 5782 5782 5783 5783 5783 5784 5784 5785 5786 5788 5790 5792 5793 5794 5796 5800 5805 5807 5809 5811 5813 5817 5820 5823 5826 5828 5831 5834 5836 5839 5841 5843 5845 5849 5851 5854 5857 5861 5865 5868 5870 5874 5877 5876 5875 5879 5882 5885 5887 5889 5892 5892 5891 5894 5895 5896 5897 5897 5898 5900 5901 5902 5902 5901 5902 5902 5903 5905 5906 5907 5908 5909 5909 5910 5911 5912
5793 5792 5790 5788 5787 5785 5784 5782 5780 5779 5778 5778 5778 5778 5778 5779 5779 5780 5780 5781 5782 5783 5785 5787 5789 5790 5793 5798 5801 5803 5805 5808 5810 5814 5817 5820 5823 5825 5828 5831 5833 5836 5838 5840 5843 5846 5849 5852 5855 5859 5861 5863 5866 5870 5870 5868 5872 5879 5881 5883 5886 5888 5891 5890 5890 5892 5894 5896 5897 5897 5898 5898 5899 5900 5900 5900 5902 5902 5903 5905 5905 5906 5908 5908 5909 5909 5910 5911
5790 5789 5787 5785 5783 5782 5780 5778 5777 5775 5774 5773 5773 5774 5774 5774 5775 5776 5776 5777 5778 5779 5781 5783 5785 5786 5790 5794 5796 5798 5801 5804 5806 5810 5814 5817 5819 5822 5825 5828 5831 5833 5835 5838 5841 5844 5847 5850 5853 5855 5857 5860 5863 5865 5866 5868 5875 5878 5879 5882 5884 5887 5889 5889 5890 5891 5893 5895 5896 5896 5898 5898 5898 5899 5900 5900 5901 5901 5903 5904 5904 5906 5907 5907 5908 5909 5910 5911
5787 5785 5783 5781 5780 5778 5776 5774 5773 5771 5770 5769 5769 5770 5770 5770 5771 5772 5773 5773 5774 5775 5777 5779 5781 5783 5786 5789 5793 5797 5798 5800 5803 5806 5810 5813 5815 5818 5822 5825 5828 5830 5832 5836 5839 5842 5844 5848 5850 5852 5853 5856 5860 5863 5865 5870 5874 5875 5877 5880 5882 5884 5886 5888 5887 5888 5891 5894 5894 5895 5900 5900 5898 5898 5899 5899 5899 5899 5901 5903 5904 5905 5906 5907 5908 5908 5909 5911
5784 5782 5780 5778 5776 5774 5772 5770 5768 5767 5766 5765 5765 5765 5766 5766 5767 5768 5769 5770 5770 5772 5773 5775 5777 5779 5782 5786 5791 5793 5793 5795 5798 5801 5806 5809 5810 5815 5819 5822 5825 5827 5829 5833 5837 5840 5841 5843 5845 5846 5850 5854 5858 5860 5864 5868 5871 5872 5874 5876 5879 5882 5885 5886 5884 5886 5890 5892 5893 5896 5900 5901 5899 5898 5897 5897 5897 5898 5899 5901 5903 5904 5905 5906 5907 5909 5909 5910
5781 5779 5776 5774 5772 5769 5767 5765 5764 5763 5762 5761 5761 5761 5761 5762 5764 5765 5766 5768 5768 5768 5770 5771 5774 5776 5779 5783 5785 5786 5789 5791 5794 5799 5803 5805 5807 5811 5815 5818 5821 5823 5826 5830 5834 5837 5838 5838 5839 5842 5848 5852 5855 5857 5860 5864 5868 5872 5873 5874 5877 5880 5883 5884 5883 5886 5890 5891 5892 5895 5898 5899 5898 5897 5896 5895 5895 5896 5898 5900 5901 5903 5905 5905 5906 5909 5909 5909
5778 5776 5773 5770 5768 5766 5764 5761 5760 5759 5758 5758 5758 5758 5758 5759 5761 5762 5764 5767 5766 5765 5767 5769 5770 5773 5774 5777 5780 5785 5788 5788 5792 5798 5800 5802 5805 5809 5812 5814 5817 5819 5822 5827 5830 5834 5835 5834 5837 5842 5847 5849 5851 5854 5858 5861 5866 5870 5869 5870 5874 5876 5878 5881 5882 5885 5889 5891 5891 5892 5896 5896 5894 5894 5894 5893 5894 5896 5897 5898 5900 5902 5904 5905 5905 5908 5909 5909
5776 5773 5770 5767 5765 5763 5760 5758 5757 5756 5755 5755 5755 5755 5755 5756 5758 5760 5763 5766 5763 5762 5765 5766 5768 5770 5771 5775 5779 5782 5781 5783 5789 5793 5795 5799 5802 5807 5809 5811 5814 5817 5820 5825 5828 5831 5832 5832 5835 5840 5843 5845 5848 5852 5855 5858 5862 5864 5862 5864 5869 5871 5874 5878 5881 5883 5886 5890 5891 5891 5893 5893 5892 5892 5892 5892 5893 5894 5896 5897 5899 5900 5902 5903 5903 5905 5909 5909
5773 5770 5768 5765 5763 5760 5758 5756 5754 5754 5753 5753 5753 5753 5754 5755 5757 5759 5761 5762 5760 5761 5763 5763 5765 5767 5769 5773 5776 5776 5776 5781 5784 5785 5790 5795 5798 5802 5804 5807 5812 5814 5818 5823 5826 5828 5829 5831 5835 5839 5841 5843 5846 5848 5851 5855 5859 5859 5858 5862 5866 5868 5871 5876 5880 5883 5884 5887 5889 5890 5891 5891 5890 5891 5891 5890 5892 5892 5894 5895 5897 5898 5899 5901 5902 5903 5907 5909
5771 5768 5766 5763 5761 5758 5756 5754 5753 5752 5752 5751 5751 5752 5753 5754 5755 5758 5760 5759 5758 5760 5761 5762 5763 5765 5767 5770 5772 5774 5777 5779 5780 5784 5789 5792 5795 5799 5801 5805 5809 5811 5815 5820 5821 5822 5824 5827 5833 5835 5836 5838 5842 5846 5848 5853 5856 5854 5855 5861 5864 5866 5871 5875 5878 5881 5882 5883 5885 5887 5890 5889 5888 5889 5888 5887 5889 5891 5892 5894 5895 5897 5898 5900 5901 5902 5905 5907
5770 5766 5764 5762 5760 5757 5755 5754 5752 5751 5751 5751 5751 5751 5752 5753 5755 5757 5758 5757 5758 5759 5760 5761 5762 5764 5766 5768 5770 5773 5775 5776 5780 5786 5789 5790 5794 5797 5799 5803 5807 5808 5813 5816 5816 5817 5820 5825 5829 5830 5831 5835 5839 5843 5846 5849 5850 5849 5852 5859 5862 5866 5870 5872 5875 5878 5878 5879 5883 5886 5889 5890 5887 5886 5885 5885 5888 5889 5890 5893 5894 5895 5897 5898 5900 5902 5903 5906
5768 5765 5763 5760 5759 5757 5755 5753 5752 5751 5750 5750 5751 5751 5752 5753 5754 5755 5756 5756 5758 5759 5759 5760 5761 5763 5765 5767 5769 5771 5773 5775 5780 5783 5786 5789 5793 5795 5798 5802 5805 5808 5813 5814 5814 5817 5820 5823 5825 5827 5830 5833 5836 5838 5841 5844 5845 5846 5853 5859 5861 5864 5866 5868 5872 5874 5874 5878 5882 5885 5889 5890 5884 5880 5881 5884 5887 5887 5889 5892 5893 5894 5895 5897 5899 5900 5902 5903
5767 5764 5762 5760 5758 5756 5755 5753 5752 5751 5750 5750 5750 5750 5752 5753 5754 5755 5756 5757 5758 5758 5758 5759 5761 5762 5764 5767 5768 5770 5773 5775 5779 5781 5783 5786 5789 5791 5794 5796 5800 5806 5810 5812 5813 5815 5817 5819 5823 5827 5829 5830 5833 5836 5839 5843 5844 5847 5853 5857 5859 5862 5863 5866 5869 5870 5872 5877 5881 5885 5889 5885 5879 5877 5879 5882 5885 5886 5889 5891 5891 5893 5894 5895 5897 5899 5901 5902
5767 5764 5762 5761 5759 5757 5755 5753 5752 5751 5751 5751 5751 5751 5752 5753 5754 5754 5755 5755 5756 5757 5758 5759 5761 5762 5764 5767 5768 5769 5772 5774 5776 5779 5781 5784 5786 5788 5791 5795 5799 5803 5806 5810 5811 5812 5815 5817 5820 5824 5825 5827 5832 5835 5837 5839 5842 5846 5851 5854 5857 5861 5863 5866 5868 5868 5872 5877 5881 5886 5887 5880 5876 5876 5877 5880 5884 5885 5887 5889 5890 5891 5892 5894 5895 5897 5899 5902
5767 5765 5763 5761 5760 5758 5756 5754 5753 5752 5751 5751 5751 5751 5752 5753 5753 5753 5753 5754 5755 5757 5758 5759 5761 5763 5765 5766 5766 5767 5771 5773 5774 5777 5780 5784 5787 5788 5790 5792 5796 5800 5803 5806 5808 5812 5814 5812 5814 5819 5822 5826 5829 5831 5834 5837 5840 5844 5847 5850 5854 5859 5862 5866 5868 5869 5873 5877 5879 5881 5880 5875 5874 5874 5874 5879 5883 5884 5886 5887 5888 5889 5891 5893 5894 5896 5897 5900
5767 5765 5764 5762 5761 5759 5757 5755 5753 5752 5751 5751 5751 5751 5752 5752 5752 5752 5753 5754 5756 5757 5758 5760 5761 5764 5766 5765 5764 5766 5769 5771 5773 5776 5779 5782 5784 5784 5785 5787 5791 5797 5799 5800 5805 5811 5813 5809 5812 5818 5820 5822 5826 5829 5832 5836 5839 5842 5844 5848 5852 5856 5859 5864 5868 5869 5872 5876 5877 5874 5872 5871 5872 5872 5873 5876 5879 5882 5885 5885 5886 5888 5889 5891 5893 5895 5896 5898
5767 5765 5764 5763 5762 5760 5757 5756 5754 5753 5752 5751 5751 5751 5751 5752 5752 5752 5753 5754 5756 5757 5758 5760 5762 5764 5765 5765 5765 5766 5768 5770 5773 5776 5777 5778 5780 5780 5782 5785 5790 5794 5796 5798 5802 5807 5809 5807 5809 5815 5816 5819 5824 5827 5830 5833 5836 5839 5843 5847 5850 5851 5852 5856 5862 5867 5870 5874 5874 5869 5868 5871 5872 5872 5872 5874 5876 5879 5882 5884 5885 5886 5888 5890 5892 5893 5895 5896
5767 5765 5765 5763 5762 5760 5758 5756 5755 5753 5752 5751 5751 5751 5752 5752 5752 5753 5753 5755 5756 5757 5758 5761 5762 5763 5765 5766 5766 5766 5769 5772 5773 5776 5777 5777 5778 5779 5781 5784 5787 5790 5794 5799 5801 5803 5805 5805 5806 5811 5813 5817 5821 5824 5827 5830 5833 5835 5837 5841 5845 5847 5850 5852 5857 5862 5866 5872 5872 5866 5865 5869 5870 5868 5869 5870 5872 5876 5880 5883 5884 5885 5886 5888 5890 5892 5894 5895
5767 5766 5765 5763 5762 5761 5759 5757 5756 5754 5752 5752 5752 5752 5752 5752 5752 5753 5753 5755 5756 5756 5758 5759 5761 5762 5764 5766 5766 5766 5769 5771 5773 5775 5776 5775 5776 5777 5779 5782 5785 5788 5792 5795 5797 5799 5802 5803 5805 5807 5810 5814 5819 5822 5825 5828 5831 5833 5834 5838 5841 5843 5848 5852 5855 5858 5862 5868 5869 5863 5861 5864 5864 5863 5863 5866 5869 5874 5879 5882 5883 5884 5885 5887 5888 5890 5892 5893
5767 5765 5764 5763 5762 5761 5760 5758 5756 5754 5753 5753 5753 5752 5752 5753 5753 5753 5754 5754 5755 5756 5757 5758 5760 5762 5763 5764 5765 5766 5768 5770 5772 5773 5773 5773 5774 5776 5778 5780 5783 5786 5789 5792 5795 5797 5800 5803 5803 5804 5808 5813 5816 5817 5820 5824 5827 5829 5833 5838 5838 5839 5844 5850 5853 5855 5858 5863 5866 5862 5857 5858 5859 5860 5860 5864 5868 5872 5876 5879 5881 5882 5884 5886 5887 5888 5890 5892
5767 5765 5764 5764 5762 5762 5760 5759 5757 5755 5755 5754 5753 5753 5753 5753 5753 5753 5754 5754 5755 5756 5757 5758 5759 5761 5762 5763 5765 5765 5767 5769 5771 5771 5771 5771 5773 5774 5776 5779 5781 5784 5788 5791 5793 5795 5797 5801 5804 5805 5808 5810 5809 5812 5816 5819 5821 5824 5828 5834 5837 5839 5843 5845 5848 5852 5854 5859 5862 5858 5853 5853 5856 5857 5859 5862 5866 5869 5873 5876 5878 5880 5882 5884 5886 5887 5888 5890
5766 5765 5764 5764 5762 5762 5760 5759 5758 5757 5755 5754 5753 5753 5753 5753 5753 5753 5754 5754 5755 5756 5757 5757 5758 5759 5760 5762 5763 5764 5766 5767 5768 5769 5769 5770 5772 5774 5775 5778 5780 5782 5785 5788 5789 5791 5795 5799 5803 5804 5804 5804 5806 5811 5815 5816 5818 5821 5824 5828 5832 5836 5840 5843 5846 5848 5850 5853 5854 5849 5848 5849 5850 5853 5856 5860 5863 5867 5870 5873 5875 5878 5880 5882 5884 5885 5887 5888
5766 5765 5764 5763 5762 5761 5760 5759 5759 5758 5756 5754 5753 5753 5753 5753 5753 5753 5754 5754 5755 5755 5756 5757 5758 5758 5759 5760 5761 5763 5764 5765 5766 5767 5768 5769 5770 5772 5774 5776 5778 5780 5782 5784 5786 5790 5795 5798 5800 5800 5799 5802 5805 5808 5811 5813 5816 5820 5822 5824 5827 5830 5834 5838 5841 5842 5844 5849 5850 5847 5845 5845 5846 5850 5855 5857 5860 5863 5866 5869 5872 5875 5877 5879 5882 5883 5885 5886
5766 5765 5764 5763 5762 5761 5760 5759 5759 5758 5756 5755 5754 5753 5752 5752 5752 5753 5753 5754 5754 5755 5755 5756 5757 5758 5759 5760 5761 5762 5763 5764 5765 5765 5766 5768 5770 5771 5773 5774 5776 5778 5780 5783 5785 5789 5792 5794 5796 5798 5799 5802 5803 5805 5808 5810 5813 5815 5817 5819 5822 5824 5827 5831 5834 5837 5840 5844 5848 5846 5843 5842 5845 5848 5851 5854 5857 5859 5862 5865 5868 5871 5874 5877 5879 5881 5883 5884
5765 5765 5764 5763 5762 5761 5760 5759 5759 5758 5757 5755 5754 5753 5752 5752 5752 5752 5753 5753 5754 5754 5755 5755 5757 5757 5758 5759 5760 5761 5762 5763 5764 5765 5766 5767 5769 5770 5772 5773 5775 5777 5779 5782 5784 5787 5788 5790 5794 5796 5797 5799 5800 5801 5803 5806 5809 5811 5813 5816 5820 5823 5825 5828 5832 5834 5836 5840 5843 5842 5838 5838 5842 5845 5848 5851 5853 5855 5859 5862 5864 5867 5870 5873 5876 5878 5880 5882
5765 5764 5763 5763 5762 5761 5760 5759 5758 5757 5757 5756 5755 5754 5753 5752 5752 5752 5752 5752 5752 5753 5754 5755 5756 5757 5758 5759 5759 5760 5761 5762 5763 5764 5765 5766 5768 5769 5771 5772 5773 5775 5777 5779 5781 5783 5786 5788 5791 5792 5792 5794 5796 5797 5800 5803 5806 5808 5811 5815 5818 5819 5822 5826 5828 5830 5834 5838 5838 5835 5833 5834 5838 5841 5845 5848 5850 5852 5855 5858 5861 5863 5866 5869 5872 5874 5877 5879
5764 5763 5763 5762 5761 5760 5760 5759 5758 5757 5757 5756 5755 5754 5753 5753 5752 5752 5751 5751 5751 5752 5753 5754 5755 5756 5756 5757 5758 5759 5760 5761 5762 5763 5764 5765 5767 5768 5769 5770 5772 5773 5775 5777 5779 5781 5784 5786 5787 5789 5790 5791 5792 5794 5798 5801 5802 5804 5808 5811 5814 5816 5819 5822 5824 5825 5830 5834 5833 5831 5833 5833 5834 5839 5843 5845 5848 5850 5852 5855 5857 5860 5862 5865 5867 5870 5873 5875
5763 5762 5761 5761 5761 5760 5759 5759 5758 5757 5756 5756 5755 5754 5753 5753 5752 5752 5751 5751 5750 5751 5751 5752 5753 5753 5755 5756 5757 5757 5758 5760 5761 5761 5763 5764 5765 5767 5768 5769 5770 5772 5773 5775 5776 5779 5782 5783 5784 5786 5787 5789 5791 5792 5794 5797 5798 5801 5805 5807 5810 5813 5815 5816 5818 5821 5827 5829 5828 5828 5831 5830 5830 5835 5839 5842 5844 5846 5848 5851 5853 5856 5858 5861 5863 5866 5869 5871
5762 5761 5761 5760 5760 5759 5759 5758 5758 5757 5756 5755 5755 5754 5753 5752 5752 5752 5751 5751 5750 5750 5750 5750 5751 5751 5753 5754 5755 5755 5756 5758 5758 5759 5761 5762 5764 5766 5766 5767 5768 5769 5771 5773 5774 5777 5779 5779 5781 5784 5785 5787 5788 5790 5792 5794 5796 5799 5801 5803 5806 5808 5809 5811 5815 5819 5823 5825 5824 5825 5826 5825 5826 5831 5835 5838 5840 5842 5845 5847 5849 5851 5854 5856 5859 5861 5864 5867
5761 5760 5760 5759 5759 5759 5758 5758 5757 5757 5756 5755 5754 5754 5753 5752 5751 5751 5751 5751 5751 5750 5750 5749 5749 5750 5751 5752 5752 5753 5754 5755 5756 5757 5759 5760 5762 5763 5763 5764 5766 5767 5769 5771 5772 5775 5776 5776 5779 5782 5784 5785 5786 5788 5789 5791 5794 5796 5797 5800 5802 5804 5806 5808 5812 5815 5819 5821 5820 5821 5821 5821 5823 5828 5832 5834 5836 5837 5840 5842 5845 5847 5849 5852 5855 5857 5860 5862
5760 5759 5759 5758 5758 5758 5758 5757 5757 5756 5755 5754 5754 5753 5752 5752 5751 5750 5750 5750 5750 5750 5750 5750 5749 5749 5750 5750 5751 5751 5752 5753 5754 5755 5757 5757 5758 5759 5760 5762 5764 5765 5767 5768 5770 5773 5773 5774 5777 5780 5781 5782 5784 5785 5787 5788 5791 5792 5794 5797 5799 5801 5803 5804 5807 5811 5814 5816 5816 5816 5817 5818 5820 5824 5827 5829 5831 5832 5835 5838 5840 5843 5846 5848 5851 5853 5855 5858
5759 5758 5758 5758 5758 5757 5757 5756 5756 5755 5755 5754 5753 5752 5752 5751 5751 5750 5750 5750 5750 5750 5750 5750 5749 5749 5749 5749 5750 5750 5751 5751 5752 5753 5754 5754 5756 5757 5758 5760 5761 5762 5764 5766 5768 5770 5771 5772 5775 5778 5779 5780 5780 5782 5784 5785 5788 5788 5790 5793 5796 5797 5799 5800 5803 5807 5810 5812 5812 5812 5813 5814 5816 5820 5822 5823 5825 5828 5830 5833 5836 5839 5842 5844 5846 5849 5851 5853